Weather History for Durango, CO

Change the Weather History Date:

Sunday, June 23, 2013

  Actual Average Record
Temperature  
Mean Temperature 63 °F 64 °F  
Max Temperature 86 °F 84 °F 95 °F (1990)
Min Temperature 40 °F 45 °F 36 °F (1976)
Degree Days  
Heating Degree Days 2 2  
Month to date heating degree days 38 105  
Since 1 June heating degree days 38 105  
Since 1 July heating degree days 7144 7113  
Cooling Degree Days 0 1  
Month to date cooling degree days 22 16  
Year to date cooling degree days 22 17  
Since 1 June cooling degree days 22 16  
Growing Degree Days 14 (Base 50)    
Moisture  
Dew Point 19 °F    
Average Humidity 24    
Maximum Humidity 41    
Minimum Humidity 6    
Precipitation  
Precipitation 0.00 in 0.03 in 0.15 in (1988)
Month to date precipitation T 0.41  
Year to date precipitation 3.75 5.84  
Sea Level Pressure  
Sea Level Pressure 29.81 in    
Wind  
Wind Speed 6 mph (NNE)    
Max Wind Speed 24 mph    
Max Gust Speed 35 mph    
Visibility 10 miles    
Events      
T = Trace of Precipitation, MM = Missing Value Source: NWS Daily Summary

Daily Weather History Graph

Daily Weather History Graph

Search for Another Location

Airport:

Trip Planner

Search our weather history database for the weather conditions in past years. The results will help you decide how hot, cold, wet, or windy it might be!

Date:

Astronomy

Jun. 23, 2013 Rise Set
Actual Time 5:51 AM MDT 8:34 PM MDT
Civil Twilight 5:20 AM MDT 9:05 PM MDT
Nautical Twilight 4:42 AM MDT 9:44 PM MDT
Astronomical Twilight 3:58 AM MDT 10:27 PM MDT
Moon 8:51 PM MDT (6/23) 6:11 AM MDT (6/23)
Length of Visible Light 15h 44m
Length of Day
14h 42m
Full, 100% of the Moon is Illuminated
Jun 23
Full
Jun 29
Last Quarter
Jul 8
New
Jul 15
First Quarter
Jul 22
Full

Hourly Weather History & Observations

Time (MDT) Temp. Windchill Dew Point Humidity Pressure Visibility Wind Dir Wind Speed Gust Speed Precip Events Conditions
12:53 AM 53.1 °F - 21.9 °F 30% 29.82 in 10.0 mi NNW 3.5 mph - N/A   Clear
1:53 AM 48.9 °F - 21.0 °F 33% 29.83 in 10.0 mi NNE 5.8 mph - N/A   Clear
2:53 AM 45.0 °F 43.5 °F 21.9 °F 40% 29.86 in 10.0 mi Variable 3.5 mph - N/A   Clear
3:53 AM 44.1 °F 39.5 °F 23.0 °F 43% 29.86 in 10.0 mi East 8.1 mph - N/A   Clear
4:53 AM 46.0 °F - 21.9 °F 39% 29.85 in 10.0 mi Calm Calm - N/A   Clear
5:53 AM 45.0 °F - 21.0 °F 39% 29.86 in 10.0 mi Calm Calm - N/A   Clear
6:53 AM 48.0 °F - 23.0 °F 37% 29.87 in 10.0 mi NE 3.5 mph - N/A   Clear
7:53 AM 55.9 °F - 26.1 °F 32% 29.86 in 10.0 mi ENE 3.5 mph - N/A   Clear
8:53 AM 63.0 °F - 23.0 °F 22% 29.86 in 10.0 mi East 5.8 mph - N/A   Clear
9:53 AM 70.0 °F - 21.9 °F 16% 29.86 in 10.0 mi ENE 10.4 mph - N/A   Clear
10:53 AM 75.0 °F - 24.1 °F 15% 29.86 in 10.0 mi Variable 5.8 mph - N/A   Clear
11:53 AM 79.0 °F - 24.1 °F 13% 29.84 in 10.0 mi ENE 9.2 mph - N/A   Clear
12:53 PM 80.1 °F - 19.9 °F 11% 29.82 in 10.0 mi Variable 3.5 mph - N/A   Clear
1:53 PM 82.0 °F - 17.1 °F 9% 29.80 in 10.0 mi West 5.8 mph 20.7 mph N/A   Clear
2:53 PM 84.9 °F - 12.9 °F 7% 29.79 in 10.0 mi SW 11.5 mph 24.2 mph N/A   Clear
3:53 PM 82.9 °F - 10.9 °F 7% 29.79 in 10.0 mi SSW 11.5 mph 17.3 mph N/A   Clear
4:53 PM 84.9 °F - 10.9 °F 6% 29.76 in 10.0 mi South 15.0 mph 21.9 mph N/A   Clear
5:53 PM 82.9 °F - 10.0 °F 6% 29.76 in 10.0 mi SSW 10.4 mph - N/A   Clear
6:53 PM 80.1 °F - 10.9 °F 7% 29.75 in 10.0 mi WSW 6.9 mph 26.5 mph N/A   Clear
7:53 PM 79.0 °F - 12.9 °F 8% 29.72 in 10.0 mi West 4.6 mph - N/A   Clear
8:53 PM 75.0 °F - 14.0 °F 10% 29.72 in 10.0 mi Calm Calm - N/A   Clear
9:53 PM 61.0 °F - 17.1 °F 18% 29.75 in 10.0 mi North 8.1 mph - N/A   Clear
10:53 PM 57.9 °F - 21.0 °F 24% 29.74 in 10.0 mi NNW 8.1 mph - N/A   Clear
11:53 PM 57.0 °F - 19.9 °F 24% 29.75 in 10.0 mi North 3.5 mph - N/A   Clear